TJS-3

Last updated on Thu Jul 03 2025 00:02:48 GMT+0000 (Coordinated Universal Time)

1 43874U 18110A 25183.74536922 .00000065 00000+0 00000+0 0 9993 2 43874 1.6426 84.8054 0002237 355.8739 167.6402 1.00270503 23975
UTC large
Height (km)
Speed (km/s)
/
Latitude / Longitude
Inclination (degrees)
Orbital Period (minutes)
Azimuth
Elevation
Range (km)
Doppler Factor

Next 0 passes for location: London (51.5072 / 0.1276)

Sorry there are no passes over London.